Location: Home
(51.5204°N, 2.5456°W)
Time: 19:20:57
(UTC+00:00)

STRAND 1 - Pass Details

Date: 10 December 2019
Orbit: 768 x 781 km, 98.5° (Epoch: 28 January)

Event Time Altitude Azimuth Distance (km) Brightness Sun altitude
Rises 05:39:43 0° 136° (SE) 3,249 ? -21.2°
Reaches altitude 10° 05:42:10 10° 128° (SE) 2,324 ? -20.8°
Maximum altitude 05:46:48 36° 63° (ENE) 1,226 ? -20.1°
Drops below altitude 10° 05:51:26 10° 359° (N) 2,330 ? -19.4°
Enters shadow 05:53:44 - 351° (N) 3,201 ? -19.1°
